Regional Weather Roundup
Issued by NWS

Home | Current Version | Previous Version | Text Only | Print | Product List | Glossary Off
Versions: 1 2 3 4 5 6 7 8 9 10 11 12 13 14 15 16 17 18 19 20 21 22 23 24 25 26 27 28 29 30 31 32 33 34 35 36 37 38 39 40 41 42 43 44 45 46 47 48 49 50

000
ASUS43 KLOT 240004
RWRIL

ILLINOIS REGIONAL WEATHER ROUNDUP
NATIONAL WEATHER SERVICE CHICAGO/ROMEOVILLE IL
700 PM CDT TUE MAY 23 2017

NOTE: "FAIR" INDICATES FEW OR NO CLOUDS BELOW 12,000 FEET WITH NO
SIGNIFICANT WEATHER AND/OR OBSTRUCTIONS TO VISIBILITY.

* THESE STATIONS ARE NOT UNDER NWS QUALITY CONTROL. THEY ALSO MAY NOT
  REPORT WEATHER SUCH AS PRECIPITATION OR FOG.

ILZ001-002-007-009-015-016-024-240100-
NORTHWEST ILLINOIS

CITY           SKY/WX    TMP DP  RH WIND       PRES   REMARKS
MOLINE         CLOUDY    58  50  75 NW8       29.70R
6HR MIN TEMP:  58; 6HR MAX TEMP:  67; 6HR PCP:  0.01;

STERLING*      MOSUNNY   59  52  77 E3        29.70F
$$

ILZ003-004-008-010-011-017-018-240100-
NORTH CENTRAL ILLINOIS

CITY           SKY/WX    TMP DP  RH WIND       PRES   REMARKS
ROCKFORD       CLOUDY    58  54  86 CALM      29.71F
6HR MIN TEMP:  57; 6HR MAX TEMP:  61; 6HR PCP:  0.42;

FREEPORT*      PTSUNNY   58  52  80 NE3       29.71S
ROCHELLE*      CLOUDY    56  53  89 CALM      29.71F
DE KALB*       DRIZZLE   55  53  91 N5        29.71F
$$

ILZ005-006-012>014-019>023-240100-
NORTHEAST ILLINOIS

CITY           SKY/WX    TMP DP  RH WIND       PRES   REMARKS
CHICAGO-OHARE  LGT RAIN  58  55  90 W5        29.70S
6HR MIN TEMP:  58; 6HR MAX TEMP:  62; 6HR PCP:  0.17;

CHICAGO-MIDWAY LGT RAIN  58  56  93 E6        29.70S
6HR MIN TEMP:  57; 6HR MAX TEMP:  65; 6HR PCP:  0.25;

AURORA         CLOUDY    57  55  93 N7        29.71S
6HR MIN TEMP:  57; 6HR MAX TEMP:  61; 6HR PCP:  0.45;

LANSING*       HVY RAIN  56  56  97 NE5       29.71S
WAUKEGAN       LGT RAIN  55  53  93 CALM      29.71S FOG
6HR MIN TEMP:  54; 6HR MAX TEMP:  61; 6HR PCP:  0.04;

DUPAGE AIRPORT HVY RAIN  55  55 100 CALM      29.71R VSB 1
6HR MIN TEMP:  55; 6HR MAX TEMP:  61; 6HR PCP:  0.48;

WHEELING       LGT RAIN  56  55  97 CALM      29.72S
6HR MIN TEMP:  56; 6HR MAX TEMP:  62; 6HR PCP:  0.15;

MORRIS*        LGT RAIN  58  55  89 CALM      29.70S
NORTHERLY ISL    N/A     55  52  89 SE3         N/A
$$

LMZ740>746-240100-
SOUTHERN LAKE MICHIGAN

STATION/POSITION SKY/WX   TEMP    WIND        PRES    VSBY  WAVE
                          AIR SEA DIR/SP/G                  HT/PER
                          (F)     (DEG/KT/KT) (MB)    (MI)  (FT/S)
SOUTHERN BUOY              49 45  150/  2/  2 1006.9          0
WILMETTE HARBOR            52 53                N/A           0
HARRISON CRIB              56      50/  4/  5   N/A
BURNHAM HARBOR             55      90/  4/  6   N/A
CALUMET HARBOR             56     230/  4/  5 1006.2R
BURNS HARBOR               54     300/ 10/ 11 1006.1F
MICHIGAN CITY              57      20/  9/ 10   N/A
MICHIGAN CITY 6N           55 54   40/  8/ 10   N/A           1
ST. JOSEPH                 60 56  100/  4/  6 1005.8F         0
$$

ILZ025>027-034>036-040-047-049-050-058-095>099-240100-
WEST-CENTRAL ILLINOIS

CITY           SKY/WX    TMP DP  RH WIND       PRES   REMARKS
QUINCY         CLOUDY    63  50  62 NW12      29.71S
GALESBURG*     PTSUNNY   61  50  66 NW13      29.69S
MACOMB*        PTSUNNY   63  51  65 NW7       29.72S
$$

ILZ028>032-037-038-041>044-048-051>054-059>061-240100-
CENTRAL ILLINOIS

CITY           SKY/WX    TMP DP  RH WIND       PRES   REMARKS
BLOOMINGTON    CLOUDY    59  56  89 CALM      29.71F
DECATUR        LGT RAIN  59  57  93 NW5       29.69S
PEORIA         RAIN      59  57  93 NW3       29.70F
6HR MIN TEMP:  58; 6HR MAX TEMP:  62; 6HR PCP:  0.15;

LACON*         CLOUDY    59  56  88 N3        29.70S
LINCOLN*       CLOUDY    60  57  89 NW3       29.70S
SPRINGFIELD    CLOUDY    59  56  89 NW3       29.70F
6HR MIN TEMP:  58; 6HR MAX TEMP:  64; 6HR PCP:  0.07;

TAYLORVILLE    NOT AVBL
$$

ILZ033-039-045-046-055>057-062-063-240100-
EAST-CENTRAL ILLINOIS

CITY           SKY/WX    TMP DP  RH WIND       PRES   REMARKS
CHAMPAIGN      CLOUDY    64  56  75 NW10      29.68S
MATTOON        CLOUDY    65  56  72 NW12      29.66S
$$

ILZ079-100>102-240100-
SOUTHWEST ILLINOIS

CITY           SKY/WX    TMP DP  RH WIND       PRES   REMARKS
ALTON          CLOUDY    57  54  88 NW6       29.72S
BELLEVILLE     LGT RAIN  62  58  86 N21       29.71R
CAHOKIA*       LGT RAIN  61  54  77 N8        29.71R
SPARTA*        CLOUDY    64  57  77 NW6       29.70S
$$

ILZ064>066-069>071-074>076-080>082-084>086-088>090-092>094-240100-
SOUTH-CENTRAL ILLINOIS

CITY           SKY/WX    TMP DP  RH WIND       PRES   REMARKS
CARBONDALE     CLOUDY    65  59  81 NW7       29.68S
6HR MIN TEMP:  65; 6HR MAX TEMP:  74; 6HR PCP: TRACE;

CAIRO*         CLOUDY    71  55  58 W6        29.66F
EFFINGHAM*     CLOUDY    65  60  84 W7        29.68S
MT. VERNON       N/A     67  57  70 CALM      29.68R
CENTRALIA*     CLOUDY    67  57  70 NW8       29.67S
SALEM*         CLOUDY    66  55  67 NW5       29.68S
$$

ILZ067-068-072-073-078-083-087-091-240100-
SOUTHEAST ILLINOIS

CITY           SKY/WX    TMP DP  RH WIND       PRES   REMARKS
LAWRENCEVILLE  CLOUDY    72  48  42 SW5       29.66S
FLORA*         CLOUDY    68  57  68 NW8       29.67S
FAIRFIELD*     CLOUDY    69  54  57 CALM      29.66S
HARRISBURG*    CLOUDY    70  57  64 CALM      29.67R
ROBINSON*      CLOUDY    71  50  47 SW5       29.66S
CARMI*         CLOUDY    70  51  50 W6        29.65S
$$

ABBREVIATIONS USED IN REMARKS
   TC - TEMPERATURE IN CELSIUS
  WCI - WIND CHILL INDEX
   HX - HEAT INDEX
  VSB - VISIBILITY
$$





USA.gov is the U.S. government's official web portal to all federal, state and local government web resources and services.